Regional Weather Roundup
Issued by NWS

Home | Current Version | Previous Version | Text Only | Print | Product List | Glossary Off
Versions: 1 2 3 4 5 6 7 8 9 10 11 12 13 14 15 16 17 18 19 20 21 22 23 24 25 26 27 28 29 30 31 32 33 34 35 36 37 38 39 40 41 42 43 44 45 46 47 48 49 50

000
ASUS43 KFSD 201502
RWRSD

WEATHER ROUNDUP FOR SOUTH DAKOTA
NATIONAL WEATHER SERVICE SIOUX FALLS SD
1000 AM CDT SUN MAY 20 2018

NOTE: "FAIR" INDICATES FEW OR NO CLOUDS BELOW 12,000 FEET WITH NO
SIGNIFICANT WEATHER AND/OR OBSTRUCTIONS TO VISIBILITY.


SDZ001>005-009-010-012>017-201600-
NORTHWEST AND NORTH CENTRAL SOUTH DAKOTA

CITY           SKY/WX    TMP DP  RH WIND       PRES   REMARKS
BUFFALO          N/A     56  37  49 SE20      30.18S
FAITH            N/A     55  37  50 SE13      30.27S
MOBRIDGE       SUNNY     56  39  53 CALM      30.27R
$$

SDZ012>016-024>037-041>051-057-063-072>074-201600-
SOUTHWEST AND SOUTH CENTRAL SOUTH DAKOTA

CITY           SKY/WX    TMP DP  RH WIND       PRES   REMARKS
RAPID CTY ARPT MOSUNNY   50  38  63 VRB5      30.27S
PIERRE         MOSUNNY   55  40  56 SE8       30.26R
CUSTER         MOSUNNY   42  30  62 E8        30.26F
ELLSWORTH AFB  MOSUNNY   51  39  62 SE8       30.27S
PHILIP         SUNNY     54  43  66 SE6       30.27S
PINE RIDGE     MOSUNNY   50  41  71 CALM      30.27S
SPEARFISH      FAIR      54  37  54 SE12      30.24R
WINNER         FAIR      56  38  50 NE13      30.24S
$$

SDZ004>011-016>023-039-040-201600-
NORTHEAST SOUTH DAKOTA

CITY           SKY/WX    TMP DP  RH WIND       PRES   REMARKS
ABERDEEN       MOSUNNY   59  35  40 MISG      30.28R
WATERTOWN      SUNNY     54  35  48 E15G24    30.24R
BROOKINGS      CLOUDY    50  35  56 NE13      30.23
SISSETON         N/A     58  35  42 E8        30.27S
$$

SDZ017-020-022-023-036>040-048>070-201600-
SOUTHEAST SOUTH DAKOTA

CITY           SKY/WX    TMP DP  RH WIND       PRES   REMARKS
SIOUX FALLS    CLOUDY    49  41  74 NE13      30.20S
HURON          SUNNY     57  38  48 E9        30.24S
CHAMBERLAIN    SUNNY     58  40  52 E12       30.24S
MITCHELL       CLOUDY    52  39  61 NE13      30.23S
YANKTON        CLOUDY    51  45  79 NE8       30.20R
$$

ABBREVIATIONS USED IN REMARKS
   TC - TEMPERATURE IN CELSIUS
  WCI - WIND CHILL INDEX
   HX - HEAT INDEX
  VSB - VISIBILITY





USA.gov is the U.S. government's official web portal to all federal, state and local government web resources and services.